Volver al catálogo

STARLINK-30041

ActivoComunicacionesVLEO
NORAD 57613·PAYLOAD·🇺🇸 United States

Lanzado Aug 11, 2023 desde Cape Canaveral Space Force Station

Loading…

Próximos Pases (próximas 24 horas)

TLE

ActualizadoSource: CelesTrak SupGP

Época: Sep 15, 2026, 02:20 UTC

1 57613C 23119M   26258.09770833  .00027262  00000+0  98754-3 0  2580
2 57613  43.0016  91.6726 0001668 267.2753 195.6953 15.27560527    11

Sigue STARLINK-30041 en tiempo real con AllMySat

Download on the App Store